• In Moldova, Republic
  • List of Countries
  • For 7 days
  • Water Temperature
  • Satellite Maps
  • Weather Map
  • Weather Widgets
  • user-avatar
    Login

    Hourly Weather Kaprun

    Today, 19 January, Thursday

    Time Temperature Precipitation Wind Pressure Humidity
    00:00 -22°C° 0 mm 1 mps 592 mmHg 97%
    01:00 -23°C° 0 mm 1 mps 592 mmHg 98%
    02:00 -23°C° 0 mm 1 mps 592 mmHg 98%
    03:00 -23°C° 0 mm 1 mps 592 mmHg 97%
    04:00 -23°C° 0 mm 1 mps 592 mmHg 97%
    05:00 -23°C° 0 mm 1 mps 592 mmHg 96%
    06:00 -22°C° 0 mm 1 mps 592 mmHg 96%
    07:00 -21°C° 0 mm 1 mps 593 mmHg 93%
    08:00 -18°C° 0 mm 1 mps 595 mmHg 92%
    09:00 -14°C° 0 mm 1 mps 597 mmHg 90%
    10:00 -11°C° 0 mm 1 mps 599 mmHg 88%
    11:00 -9°C° 0 mm 1 mps 599 mmHg 89%
    12:00 -8°C° 0 mm 1 mps 600 mmHg 89%
    13:00 -7°C° 0 mm 1 mps 601 mmHg 91%
    14:00 -8°C° 0 mm 1 mps 600 mmHg 93%
    15:00 -9°C° 0 mm 1 mps 599 mmHg 95%
    16:00 -11°C° 0 mm 1 mps 598 mmHg 97%
    17:00 -14°C° 0 mm 1 mps 597 mmHg 98%
    18:00 -17°C° 0 mm 1 mps 595 mmHg 98%
    19:00 -20°C° 0 mm 1 mps 593 mmHg 99%
    20:00 -20°C° 0 mm 1 mps 594 mmHg 97%
    21:00 -19°C° 0 mm 1 mps 594 mmHg 95%
    22:00 -19°C° 0 mm 1 mps 594 mmHg 93%
    23:00 -19°C° 0 mm 1 mps 595 mmHg 90%

    Tomorrow, 20 January, Friday

    Time Temperature Precipitation Wind Pressure Humidity
    00:00 -20°C° 0 mm 2 mps 595 mmHg 88%
    01:00 -20°C° 0 mm 2 mps 595 mmHg 85%
    02:00 -20°C° 0 mm 2 mps 595 mmHg 85%
    03:00 -19°C° 0 mm 2 mps 595 mmHg 84%
    04:00 -19°C° 0 mm 2 mps 595 mmHg 84%
    05:00 -19°C° 0 mm 2 mps 595 mmHg 84%
    06:00 -19°C° 0 mm 2 mps 595 mmHg 84%
    07:00 -19°C° 0 mm 2 mps 595 mmHg 84%
    08:00 -17°C° 0 mm 2 mps 597 mmHg 84%
    09:00 -14°C° 0 mm 2 mps 598 mmHg 83%
    10:00 -12°C° 0 mm 2 mps 600 mmHg 83%
    11:00 -8°C° 0 mm 1 mps 600 mmHg 85%
    12:00 -7°C° 0 mm 1 mps 600 mmHg 87%
    13:00 -6°C° 0 mm 1 mps 601 mmHg 89%
    14:00 -7°C° 0 mm 1 mps 600 mmHg 91%
    15:00 -9°C° 0 mm 1 mps 599 mmHg 92%
    16:00 -11°C° 0 mm 1 mps 598 mmHg 94%
    17:00 -12°C° 0 mm 1 mps 597 mmHg 93%
    18:00 -14°C° 0 mm 1 mps 596 mmHg 93%
    19:00 -18°C° 0 mm 2 mps 595 mmHg 93%
    20:00 -18°C° 0 mm 2 mps 596 mmHg 92%
    21:00 -18°C° 0 mm 2 mps 596 mmHg 90%
    22:00 -18°C° 0 mm 2 mps 596 mmHg 89%
    23:00 -18°C° 0 mm 2 mps 596 mmHg 89%

    Day after tomorrow, 21 January, Saturday

    Time Temperature Precipitation Wind Pressure Humidity
    00:00 -18°C° 0 mm 2 mps 596 mmHg 88%
    01:00 -18°C° 0 mm 2 mps 595 mmHg 88%
    02:00 -18°C° 0 mm 2 mps 595 mmHg 87%
    03:00 -18°C° 0 mm 2 mps 595 mmHg 86%
    04:00 -18°C° 0 mm 2 mps 595 mmHg 86%
    05:00 -18°C° 0 mm 2 mps 595 mmHg 85%
    06:00 -18°C° 0 mm 2 mps 595 mmHg 85%
    07:00 -19°C° 0 mm 2 mps 594 mmHg 85%
    08:00 -16°C° 0 mm 2 mps 596 mmHg 84%
    09:00 -11°C° 0 mm 1 mps 598 mmHg 83%
    10:00 -8°C° 0 mm 1 mps 599 mmHg 82%
    11:00 -7°C° 0 mm 1 mps 600 mmHg 85%
    12:00 -6°C° 0 mm 1 mps 600 mmHg 87%
    13:00 -3°C° 0 mm 1 mps 600 mmHg 89%
    14:00 -6°C° 0 mm 1 mps 599 mmHg 90%
    15:00 -8°C° 0 mm 1 mps 598 mmHg 92%
    16:00 -10°C° 0 mm 1 mps 597 mmHg 93%
    17:00 -11°C° 0 mm 1 mps 596 mmHg 93%
    18:00 -13°C° 0 mm 1 mps 595 mmHg 93%
    19:00 -17°C° 0 mm 2 mps 595 mmHg 93%
    20:00 -16°C° 0 mm 2 mps 595 mmHg 91%
    21:00 -16°C° 0 mm 2 mps 595 mmHg 89%
    22:00 -16°C° 0 mm 2 mps 595 mmHg 88%
    23:00 -16°C° 0 mm 2 mps 595 mmHg 87%

    22 January, Sunday

    Time Temperature Precipitation Wind Pressure Humidity
    00:00 -16°C° 0 mm 2 mps 596 mmHg 87%
    01:00 -16°C° 0 mm 2 mps 596 mmHg 87%
    02:00 -16°C° 0 mm 2 mps 595 mmHg 87%
    03:00 -16°C° 0 mm 2 mps 595 mmHg 87%
    04:00 -16°C° 0 mm 2 mps 595 mmHg 87%
    05:00 -16°C° 0 mm 2 mps 595 mmHg 87%
    06:00 -16°C° 0 mm 2 mps 595 mmHg 87%
    07:00 -17°C° 0 mm 2 mps 594 mmHg 87%
    08:00 -15°C° 0 mm 2 mps 596 mmHg 87%
    09:00 -12°C° 0 mm 2 mps 597 mmHg 86%
    10:00 -9°C° 0 mm 2 mps 598 mmHg 85%
    11:00 -8°C° 0 mm 2 mps 598 mmHg 87%
    12:00 -7°C° 0 mm 2 mps 598 mmHg 89%
    13:00 -6°C° 0 mm 2 mps 598 mmHg 91%
    14:00 -6°C° 0 mm 2 mps 598 mmHg 91%
    15:00 -7°C° 0 mm 2 mps 597 mmHg 92%
    16:00 -8°C° 0 mm 2 mps 597 mmHg 92%
    17:00 -10°C° 0 mm 2 mps 596 mmHg 92%
    18:00 -12°C° 0 mm 2 mps 595 mmHg 91%
    19:00 -14°C° 0 mm 2 mps 594 mmHg 91%
    20:00 -14°C° 0 mm 2 mps 594 mmHg 90%
    21:00 -14°C° 0 mm 2 mps 595 mmHg 90%
    22:00 -14°C° 0 mm 2 mps 595 mmHg 89%
    23:00 -14°C° 0 mm 2 mps 594 mmHg 89%

    23 January, Monday

    Time Temperature Precipitation Wind Pressure Humidity
    00:00 -14°C° 0 mm 2 mps 594 mmHg 88%
    01:00 -14°C° 0 mm 2 mps 594 mmHg 88%
    02:00 -14°C° 0 mm 2 mps 594 mmHg 89%
    03:00 -14°C° 0 mm 2 mps 594 mmHg 89%
    04:00 -14°C° 0 mm 2 mps 594 mmHg 90%
    05:00 -14°C° 0 mm 2 mps 593 mmHg 90%
    06:00 -14°C° 0 mm 2 mps 593 mmHg 90%
    07:00 -12°C° 0 mm 1 mps 593 mmHg 90%
    08:00 -10°C° 0 mm 1 mps 594 mmHg 89%
    09:00 -8°C° 0 mm 1 mps 595 mmHg 89%
    10:00 -6°C° 0 mm 1 mps 596 mmHg 88%
    11:00 -4°C° 0 mm 1 mps 596 mmHg 90%
    12:00 -3°C° 0 mm 1 mps 597 mmHg 92%
    13:00 -2°C° 0 mm 1 mps 597 mmHg 94%
    14:00 -3°C° 0 mm 1 mps 596 mmHg 94%
    15:00 -4°C° 0 mm 1 mps 595 mmHg 94%
    16:00 -6°C° 0 mm 1 mps 594 mmHg 94%
    17:00 -10°C° 0 mm 1 mps 592 mmHg 96%
    18:00 -14°C° 0 mm 0 mps 590 mmHg 97%
    19:00 -17°C° 0 mm 0 mps 588 mmHg 99%
    20:00 -17°C° 0 mm 0 mps 588 mmHg 99%
    21:00 -18°C° 0 mm 0 mps 588 mmHg 99%
    22:00 -18°C° 0 mm 0 mps 588 mmHg 99%
    23:00 -18°C° 0 mm 0 mps 588 mmHg 99%

    24 January, Tuesday

    Time Temperature Precipitation Wind Pressure Humidity
    00:00 -18°C° 0 mm 0 mps 588 mmHg 98%
    01:00 -18°C° 0 mm 0 mps 588 mmHg 98%
    02:00 -17°C° 0 mm 1 mps 588 mmHg 98%
    03:00 -16°C° 0 mm 1 mps 589 mmHg 98%
    04:00 -15°C° 0 mm 1 mps 589 mmHg 97%
    05:00 -15°C° 0 mm 1 mps 589 mmHg 97%
    06:00 -15°C° 0 mm 1 mps 590 mmHg 97%
    07:00 -14°C° 0 mm 1 mps 590 mmHg 97%
    08:00 -12°C° 0 mm 1 mps 591 mmHg 96%
    09:00 -10°C° 0 mm 1 mps 593 mmHg 95%
    10:00 -7°C° 0 mm 1 mps 594 mmHg 93%
    11:00 -6°C° 0 mm 1 mps 594 mmHg 93%
    12:00 -4°C° 0 mm 1 mps 595 mmHg 92%
    13:00 -3°C° 0 mm 1 mps 595 mmHg 92%
    14:00 -6°C° 0 mm 1 mps 594 mmHg 94%
    15:00 -7°C° 0 mm 1 mps 594 mmHg 95%
    16:00 -8°C° 0 mm 1 mps 593 mmHg 97%
    17:00 -11°C° 0 mm 1 mps 592 mmHg 98%
    18:00 -14°C° 0 mm 1 mps 591 mmHg 98%
    19:00 -17°C° 0 mm 1 mps 589 mmHg 99%
    20:00 -18°C° 0 mm 1 mps 589 mmHg 99%
    21:00 -19°C° 0 mm 1 mps 588 mmHg 98%
    22:00 -20°C° 0 mm 1 mps 588 mmHg 98%
    23:00 -21°C° 0 mm 1 mps 587 mmHg 95%
    Show more